x

Mumbles Head (03609) Weather Station

11:00 - Sat 31st Jan 2015 All times are GMT.

  • Wind
    14mph
  • Luft Temp 39°f
  • Sea Pressure 1001mb
  • Mumbles Head
  • Mumbles Head

More Historic Weather Station data

Upgrade to MSW Pro to gain access to the past 30 days of data for over 8000 Wavebouys and Weather Stations around the globe.

Join Pro

Comparision Forecast

View Surf forecast
   
Sa 01/31 11:00 14
mph
1001mb 39f
10:00 16 36 mph 1001mb 39f
9:00 16 40 mph 1000mb 39f
8:00 17 34 mph 999mb 40f
7:00 16 38 mph 998mb 39f
6:00 23 43 mph 997mb 39f
5:00 18 33 mph 996mb 40f
4:00 15 36 mph 995mb 39f
3:00 13 44 mph 994mb 40f
2:00 17 33 mph 992mb 42f
1:00 16 29 mph 991mb 41f
12:00 14 29 mph 991mb 41f
11:00 7
mph
990mb 42f
10:00 13
mph
988mb 42f
9:00 10 32 mph 987mb 40f
8:00 15 40 mph 985mb 39f
7:00 18 36 mph 984mb 40f
6:00 19 34 mph 984mb 40f
5:00 15
mph
983mb 39f
4:00 15 30 mph 983mb 38f
3:00 10 34 mph 984mb 38f
2:00 14 36 mph 984mb 38f
1:00 16 31 mph 983mb 38f
12:00 15 32 mph 983mb 38f
Fr 01/30 11:00 15
mph
983mb 38f
10:00 11
mph
983mb 38f
9:00 10 29 mph 983mb 37f
8:00 11
mph
983mb 39f
7:00 9
mph
983mb 40f
6:00 10
mph
983mb 40f
5:00 11
mph
983mb 42f
4:00 9
mph
983mb 42f
3:00 10 30 mph 983mb 42f
2:00 19 33 mph 983mb 45f
1:00 15 28 mph 983mb 44f
12:00 15
mph
984mb 43f
11:00 9 29 mph 984mb 42f
10:00 9
mph
984mb 41f
9:00 10
mph
984mb 40f
8:00 10
mph
983mb 39f
7:00 10 30 mph 983mb 39f
6:00 15 37 mph 982mb 40f
5:00 25 44 mph 980mb 40f
4:00 31 51 mph 978mb 40f
3:00 23 51 mph 977mb 42f
2:00 24 46 mph 979mb 42f
1:00 31 45 mph 980mb 42f
12:00 21 30 mph 981mb 43f
Do 01/29 11:00 17 33 mph 983mb 42f
10:00 17 34 mph 983mb 40f
9:00 16 33 mph 983mb 39f
8:00 17 29 mph 983mb 39f
7:00 17 31 mph 983mb 39f
6:00 21 33 mph 982mb 38f
5:00 16 38 mph 982mb 38f
4:00 19 37 mph 982mb 38f
3:00 19 45 mph 982mb 37f
2:00 10 31 mph 982mb 39f
1:00 13 33 mph 983mb 38f
12:00 19 36 mph 984mb 40f
11:00 14 38 mph 986mb 41f
10:00 13
mph
987mb 42f
9:00 13 29 mph 989mb 40f
8:00 17 30 mph 990mb 39f
7:00 14
mph
992mb 41f
6:00 16 38 mph 993mb 40f
5:00 18
mph
994mb 42f
4:00 13 37 mph 996mb 41f
3:00 9 30 mph 997mb 40f
2:00 19 31 mph 998mb 41f
1:00 14
mph
1000mb 40f
12:00 15 38 mph 1000mb 41f
Mi 01/28 11:00 17 30 mph 1001mb 41f
10:00 14 29 mph 1002mb 40f
9:00 17 34 mph 1003mb 40f
8:00 17 37 mph 1004mb 40f
7:00 15 26 mph 1005mb 39f
6:00 21 37 mph 1006mb 37f
5:00 19 32 mph 1006mb 41f
4:00 16 31 mph 1006mb 42f
3:00 17 34 mph 1006mb 42f
2:00 19 36 mph 1006mb 44f
1:00 18 37 mph 1006mb 44f
12:00 19 44 mph 1006mb 42f
11:00 21 43 mph 1006mb 43f
10:00 26 67 mph 1005mb 45f
9:00 38 59 mph 1004mb 49f
8:00 38 45 mph 1005mb 48f
7:00 36 43 mph 1006mb 48f
6:00 33 38 mph 1008mb 48f
5:00 26 37 mph 1010mb 47f
4:00 31 34 mph 1011mb 47f
3:00 29 33 mph 1014mb 47f
2:00 28 33 mph 1016mb 47f
1:00 28 36 mph 1017mb 46f
12:00 26 31 mph 1018mb 46f